Weather History for Ely, NV

Change the Weather History Date:

Tuesday, July 24, 2012

  Actual Average Record
Temperature  
Mean Temperature 69 °F 69 °F  
Max Temperature 85 °F 89 °F 96 °F (1899)
Min Temperature 53 °F 49 °F 32 °F (1993)
Degree Days  
Heating Degree Days 0 0  
Month to date heating degree days 3 20  
Since 1 June heating degree days 119 195  
Since 1 July heating degree days 3 20  
Cooling Degree Days 4 4  
Month to date cooling degree days 94 82  
Year to date cooling degree days 147 106  
Since 1 June cooling degree days 147 105  
Growing Degree Days 18 (Base 50)    
Moisture  
Dew Point 45 °F    
Average Humidity 52    
Maximum Humidity 83    
Minimum Humidity 20    
Precipitation  
Precipitation 0.00 in 0.03 in 1.20 in (1952)
Month to date precipitation 1.17 0.45  
Year to date precipitation 5.05 5.55  
Snow  
Snow 0.00 in 0.00 in 0.00 in (1893)
Month to date snowfall 0.0 0.0  
Since 1 June snowfall T 0.1  
Since 1 July snowfall 0.0 0.0  
Snow Depth 0.00 in    
Sea Level Pressure  
Sea Level Pressure 29.91 in    
Wind  
Wind Speed 8 mph (SSW)    
Max Wind Speed 25 mph    
Max Gust Speed 31 mph    
Visibility 10 miles    
Events Thunderstorm    
T = Trace of Precipitation, MM = Missing Value Source: NWS Daily Summary

Daily Weather History Graph

Daily Weather History Graph

Search for Another Location

Airport:

Trip Planner

Search our weather history database for the weather conditions in past years. The results will help you decide how hot, cold, wet, or windy it might be!

Date:

Astronomy

Jul. 24, 2012 Rise Set
Actual Time 5:32 AM PDT 7:58 PM PDT
Civil Twilight 5:02 AM PDT 8:28 PM PDT
Nautical Twilight 4:24 AM PDT 9:06 PM PDT
Astronomical Twilight 3:42 AM PDT 9:48 PM PDT
Moon 11:32 AM PDT (7/24) 10:52 PM PDT (7/24)
Length of Visible Light 15h 26m
Length of Day
14h 25m
Waxing Crescent, 32% of the Moon is Illuminated
Jul 24
Waxing Crescent
Jul 26
First Quarter
Aug 1
Full
Aug 9
Last Quarter
Aug 17
New

Hourly Weather History & Observations

Time (PDT) Temp. Dew Point Humidity Pressure Visibility Wind Dir Wind Speed Gust Speed Precip Events Conditions
12:53 AM 57.9 °F 51.1 °F 78% 29.97 in 10.0 mi SSE 3.5 mph - N/A   Partly Cloudy
1:53 AM 57.0 °F 52.0 °F 83% 29.95 in 10.0 mi South 5.8 mph - N/A   Clear
2:53 AM 57.9 °F 51.1 °F 78% 29.92 in 10.0 mi Calm Calm - N/A   Clear
3:53 AM 57.0 °F 51.1 °F 81% 29.92 in 10.0 mi Calm Calm - N/A   Clear
4:53 AM 57.9 °F 51.1 °F 78% 29.91 in 10.0 mi ESE 3.5 mph - N/A   Clear
5:53 AM 53.1 °F 48.0 °F 83% 29.95 in 10.0 mi South 4.6 mph - N/A   Clear
6:53 AM 57.0 °F 50.0 °F 77% 29.98 in 10.0 mi NW 4.6 mph - N/A   Scattered Clouds
7:53 AM 64.9 °F 50.0 °F 58% 29.94 in 10.0 mi SSE 4.6 mph - N/A   Clear
8:53 AM 70.0 °F 48.0 °F 46% 29.94 in 10.0 mi Calm Calm - N/A   Clear
9:53 AM 75.0 °F 48.0 °F 38% 29.91 in 10.0 mi Calm Calm - N/A   Clear
10:53 AM 79.0 °F 44.1 °F 29% 29.89 in 10.0 mi Variable 5.8 mph 19.6 mph N/A   Partly Cloudy
11:53 AM 80.1 °F 44.1 °F 28% 29.89 in 10.0 mi SW 12.7 mph - N/A   Mostly Cloudy
12:53 PM 82.9 °F 42.1 °F 24% 29.86 in 10.0 mi SSW 11.5 mph 21.9 mph 0.01 in   Scattered Clouds
1:18 PM 82.4 °F 44.6 °F 26% 30.16 in 10.0 mi SSW 9.2 mph 24.2 mph N/A Thunderstorm Thunderstorm
1:32 PM 78.8 °F 41.0 °F 26% 30.16 in 10.0 mi SSW 24.2 mph 31.1 mph N/A   Mostly Cloudy
1:53 PM 80.6 °F 41.0 °F 24% 30.17 in 10.0 mi SSW 13.8 mph 28.8 mph N/A   Partly Cloudy
2:53 PM 84.0 °F 42.1 °F 23% 29.83 in 10.0 mi SW 19.6 mph - N/A   Scattered Clouds
3:53 PM 84.0 °F 39.9 °F 21% 29.82 in 10.0 mi SSW 18.4 mph 28.8 mph N/A   Clear
4:53 PM 82.9 °F 39.9 °F 22% 29.81 in 10.0 mi SW 15.0 mph 24.2 mph N/A   Clear
5:53 PM 82.0 °F 39.9 °F 22% 29.83 in 10.0 mi SSW 12.7 mph 24.2 mph N/A   Clear
6:53 PM 81.0 °F 37.0 °F 21% 29.82 in 10.0 mi SW 10.4 mph - N/A   Clear
7:53 PM 78.1 °F 35.1 °F 21% 29.81 in 10.0 mi WSW 11.5 mph - N/A   Clear
8:53 PM 75.0 °F 42.1 °F 31% 29.82 in 10.0 mi SW 10.4 mph - N/A   Scattered Clouds
9:53 PM 70.0 °F 42.1 °F 36% 29.83 in 10.0 mi SSE 6.9 mph - N/A   Clear
10:53 PM 66.0 °F 44.1 °F 45% 29.85 in 10.0 mi NNE 9.2 mph - N/A   Partly Cloudy
11:53 PM 64.0 °F 48.0 °F 56% 29.86 in 10.0 mi NNE 11.5 mph 19.6 mph N/A   Partly Cloudy